www.pogodaiklimat.ru

Погода и климат >> Архив погоды >> Канада >> Eureka Climate


ПОГОДА в Eureka Climate

  • Прогноз погоды в Eureka Climate
  • Монитор погоды в Eureka Climate
  • Климат города

АРХИВ ПОГОДЫ в Eureka Climate

Время (UTC), дата Ветер
(напр.,м/с)
 
Видим.   Явления Облачность Т
(С)
Тd
(С)
f
(%)
Тe
(С)
Тes
(С)
Комфортность P
(гПа)
Po
(гПа)
Тmin
(С)
Tmax
(С)
R
(мм)
R24
(мм)
S
(см)
03 9.07 ЮВ 6 н/о н/о +2.9 +1.8 92 -3 -3 983.2 981.9
06 9.07 ЮВ 5 н/о н/о +3.1 +2.0 92 -2 -2 982.7 981.4 +2.6 +6.7
09 9.07 ЮВ 6 н/о н/о +3.6 +2.0 89 -2 -2 982.7 981.4
12 9.07 ЮВ 7 н/о н/о +3.0 +1.4 89 -3 -3 983.1 981.8 +2.6 +6.7
15 9.07 ЮВ 9 н/о н/о +2.5 +0.8 89 -5 -5 982.9 981.6
18 9.07 Ю 11 н/о н/о +3.2 -0.3 78 -4 -4 982.9 981.6 +2.3 +4.1
21 9.07 Ю 11 н/о н/о +3.1 -0.2 79 -4 -4 983.8 982.5
00 10.07 Ю 10 н/о н/о +3.7 -1.3 70 -3 -3 984.4 983.1 +2.3 +4.1
03 10.07 Ю 8 н/о н/о +3.1 -1.3 73 -3 -3 985.0 983.7
06 10.07 Ю 8 н/о н/о +2.0 -0.4 84 -5 -5 985.6 984.3 +1.8 +4.1
09 10.07 Ю 7 н/о н/о +1.5 -0.4 87 -5 -5 986.8 985.5
12 10.07 Ю 8 н/о н/о +1.8 -0.1 87 -5 -5 987.6 986.3 +1.2 +4.1
15 10.07 Ю 7 н/о н/о +1.7 +0.1 89 -5 -5 988.0 986.7
18 10.07 Ю 9 н/о н/о +2.7 -1.4 74 -4 -4 988.0 986.7 +1.2 +3.4
21 10.07 Ю 8 н/о н/о +2.3 -0.6 81 -4 -4 989.6 988.3
00 11.07 Ю 7 н/о н/о +2.7 -0.7 78 -4 -4 990.9 989.6 +1.2 +4.1
03 11.07 Ю 5 н/о н/о +3.5 -1.6 69 -1 -1 992.6 991.3
06 11.07 З 3 н/о н/о +2.6 -0.9 78 -1 -1 994.8 993.5 +1.2 +4.1
09 11.07 СЗ 3 н/о н/о +1.1 -0.4 90 -4 -4 996.6 995.3
12 11.07 ЮЗ 1 н/о н/о +3.1 -1.5 72 +3 +3 997.4 996.1 +0.8 +4.1
15 11.07 ЮВ 6 н/о н/о +3.7 -0.3 75 -2 -2 997.7 996.4
18 11.07 ЮВ 8 н/о н/о +2.7 -0.8 78 -4 -4 998.5 997.2 +0.8 +4.3
21 11.07 Ю 6 н/о н/о +3.6 -0.5 75 -2 -2 999.1 997.8
00 12.07 Ю 6 н/о н/о +2.3 +0.3 87 -4 -4 1000.3 999.0 +0.8 +4.3
03 12.07 Ю 6 н/о н/о +2.7 +0.7 87 -3 -3 1000.5 999.2
06 12.07 Ю 7 н/о н/о +2.2 +0.4 88 -4 -4 1000.4 999.1 +0.8 +4.3
09 12.07 В 4 н/о н/о +2.1 +0.2 87 -3 -3 1000.8 999.5
12 12.07 ЮВ 5 н/о н/о +2.9 +0.4 84 -2 -2 1000.9 999.6 +1.7 +4.3
15 12.07 ЮВ 6 н/о н/о +4.5 +0.8 77 -1 -1 1000.7 999.4
18 12.07 ЮЗ 2 н/о н/о +6.0 -0.9 61 +4 +4 1000.7 999.4 +1.7 +6.3
21 12.07 Ю 7 н/о н/о +5.3 +0.1 69 0 0 1001.5 1000.2
00 13.07 Ю 1 н/о н/о +3.4 -0.3 77 +2 +2 1003.3 1002.0 +1.7 +6.8
03 13.07 СЗ 2 н/о н/о +3.1 +0.4 82 0 0 1004.3 1003.0
06 13.07 С 1 н/о н/о +4.4 +2.0 84 +3 +3 1005.2 1003.9 +1.7 +7.0
09 13.07 ЮВ 4 н/о н/о +3.2 +1.0 85 -2 -2 1005.7 1004.4
12 13.07 ЮВ 2 н/о н/о +3.1 +0.4 82 0 0 1005.8 1004.5 +2.2 +7.0
15 13.07 ЮВ 3 н/о н/о +4.3 +0.3 75 +1 +1 1005.0 1003.7
18 13.07 Ю 7 н/о н/о +5.3 +0.5 71 0 0 1004.2 1002.9 +2.2 +5.3
21 13.07 Ю 7 н/о н/о +4.8 +0.8 75 -1 -1 1003.6 1002.3
00 14.07 ЮВ 6 н/о н/о +4.9 +0.7 74 0 0 1002.2 1000.9 +2.3 +6.3
03 14.07 Ю 8 н/о н/о +3.4 +0.3 80 -3 -3 1001.2 999.9
06 14.07 Ю 11 н/о н/о +2.6 -0.5 80 -5 -5 1000.0 998.7 +2.3 +6.3
09 14.07 ЮВ 5 н/о н/о +2.4 -0.5 81 -3 -3 1000.5 999.2
12 14.07 Ю 6 н/о н/о +2.7 -0.1 82 -3 -3 1000.0 998.7 +2.2 +6.3
15 14.07 Ю 8 н/о н/о +2.9 +0.4 84 -4 -4 1000.1 998.8
18 14.07 ЮВ 8 н/о н/о +3.6 +0.3 79 -3 -3 1000.5 999.2 +2.1 +4.2
21 14.07 ЮВ 7 н/о н/о +4.8 +0.5 74 -1 -1 1001.6 1000.3
00 15.07 Ю 8 н/о н/о +2.8 +0.1 82 -4 -4 1002.2 1000.9 +2.1 +5.4
03 15.07 ЮВ 5 н/о н/о +3.1 +0.7 84 -2 -2 1003.0 1001.7
06 15.07 ЮВ 7 н/о н/о +3.1 +0.5 83 -3 -3 1002.8 1001.5 +2.1 +5.4
09 15.07 ЮВ 5 н/о н/о +2.6 +0.1 84 -3 -3 1003.1 1001.8
12 15.07 Ю 5 н/о н/о +1.7 +0.8 94 -4 -4 1003.1 1001.8 +1.7 +5.4
15 15.07 СЗ 2 н/о н/о +2.7 +1.3 90 0 0 1003.1 1001.8
18 15.07 ЮВ 2 н/о н/о +3.5 +1.0 84 +1 +1 1003.4 1002.1 +1.6 +3.7
21 15.07 З 3 н/о н/о +1.4 +0.6 94 -3 -3 1004.3 1003.0
00 16.07 С 3 н/о н/о +4.4 +3.0 91 +1 +1 1004.9 1003.6 +1.3 +4.4

 

Местоположение метеостанции Eureka Climate (Канада): широта 79.99 долгота -85.93 высота над уровнем моря 10 м.

В архиве по умолчанию представлена погода в Eureka Climate за последнюю неделю. Архивные данные за месяц целиком и за предыдущие месяцы, начиная с января 2011 года, Вы можете получить, выбрав интересующий диапазон дат из раскрывающегося списка и нажав кнопку "Ввод!".


*Определитесь, кто Вы:
робот инопланетянин человек

Внимание! Время в таблицах - всемирное. Для получения местного времени необходимо прибавить поправку, которая в Eureka Climate равна -6 ч.

Смотрите также архив погоды в соседних городах и на ближайших метеорологических станциях:

Погода в Eureka (Канада) (1 км)
Погода в Chris Hadfield (Канада) (343 км)
Погода в Isachsen (aut) (Канада) (383 км)
Погода в Mittarfik Qaanaaq (Гренландия) (453 км)
Погода в Kitsissut (Гренландия) (472 км)
Погода в Alert Climate (Канада) (482 км)
Погода в Resolute Cs (Канада) (624 км)
Погода в Resolute Airport (Канада) (624 км)
Погода в Arctic Bay (Канада) (778 км)
Погода в Pond Inlet Airport (Канада) (836 км)

Пояснения к столбцам:

Ветер - указаны скорость ветра в м/с - средняя за 10 мин, порывы в срок и между сроками (в фигурных скобках) и направление, откуда дует ветер: С - северный, СВ - северо-восточный, В - восточный, ЮВ - юго-восточный, Ю - южный, ЮЗ - юго-западный, З - западный, СЗ - северо-западный.
Видимость - горизонтальная дальность видимости в метрах или километрах. При видимости от 1 до 10 км при отсутствии осадков обычно наблюдается дымка, при ухудшении видимости до 1 км и менее - туман. В сухую погоду видимость может ухудшаться дымом, пылью или мглою.
Явления - указаны атмосферные явления, наблюдавшиеся в срок или в последний час перед сроком; фигурными скобками обозначены явления, наблюдавшиеся между сроками (за 1-3 часа до срока); квадратными скобками обозначены град или гололедные отложения с указанием их диаметра в мм.
Облачность - указаны через наклонную черту общая и нижняя облачность в баллах и высота нижней границы облаков в метрах; квадратными скобками обозначены формы облаков: Ci - перистые, Cs - перисто-слоистые, Cc - перисто-кучевые, Ac - высококучевые, As - высокослоистые, Sc - слоисто-кучевые, Ns - слоисто-дождевые, Cu - кучевые, Cb - кучево-дождевые. Подробнее классификацию облаков см. в Атласе облаков (PDF).
T - Температура воздуха - температура, измеренная на высоте 2 м над землей.
Td - Температура точки росы - температура, при понижении до которой содержащийся в воздухе водяной пар достигнет насыщения.
f - Относительная влажность воздуха - влажноcть воздуха, измеренная на высоте 2 м над землей.
Te - Эффективная температура - температура, которую ощущает одетый по сезону человек в тени. Характеристика душности погоды. При расчете учитывается влияние влажности воздуха и скорости ветра на теплоощущения человека.
Tes - Эффективная температура на солнце - температура, которую ощущает человек, с поправкой на солнечный нагрев. Характеристика знойности погоды. Зависит от высоты солнца над горизонтом, облачности и скорости ветра. Ночью, в пасмурную погоду, а также при ветре 12 м/с и более поправка равна нулю.
P - Атмосферное давление - приведенное к уровню моря атмосферное давление.
Po - Атмосферное давление - измеренное на уровне метеостанции атмосферное давление.
Tmin - Минимальная температура - минимум температуры воздуха на высоте 2 м над землей.
Tmax - Максимальная температура - максимум температуры воздуха на высоте 2 м над землей.
R - Количество осадков - Количество выпавших осадков за период времени, мм. При наведении курсора мыши на число - период времени, за который выпало указанное количество осадков.
R24 - Количество осадков - Количество выпавших осадков за 24 часа, мм.
S - Снежный покров - Высота снежного покрова, см. При наведении курсора мыши на число - состояние снежного покрова и степень покрытия местности в баллах.